Regional Weather Roundup
Issued by NWS Memphis, TN

Home | Current Version | Previous Version | Text Only | Print | Product List | Glossary On
Versions: 1 2 3 4 5 6 7 8 9 10 11 12 13 14 15 16 17 18 19 20 21 22 23 24 25 26 27 28 29 30 31 32 33 34 35 36 37 38 39 40 41 42 43 44 45 46 47 48 49 50
000
ASUS44 KMEG 132210
RWRMEG
MEMPHIS CWA HOURLY WEATHER ROUNDUP
NATIONAL WEATHER SERVICE MEMPHIS TN
500 PM CDT SUN JUL 13 2014

...WEST TENNESSEE...

CITY           SKY/WX    TMP DP  RH WIND       PRES   REMARKS
MEMPHIS INTL   MOSUNNY   92  73  53 CALM      30.00F HX 100
NWS MEMPHIS      N/A     90 N/A N/A MISG        N/A
JACKSON        CLOUDY    90  71  53 SW5       30.00F HX  96
LEXINGTON      SUNNY     90  73  58 SW8       29.99F HX  98
SAVANNAH       SUNNY     92  73  53 W7        30.01F HX 100
DYERSBURG      SUNNY     93  70  46 SW6       29.99F HX  99
UNION CITY     SUNNY     91  73  55 SW10      29.96F HX 100
PARIS          MOSUNNY   89  73  59 SW8       29.99F HX  96


...EASTERN ARKANSAS...

CITY           SKY/WX    TMP DP  RH WIND       PRES   REMARKS
JONESBORO      SUNNY     91  74  57 SW13      29.97F HX 100
WEST MEMPHIS   SUNNY     91  76  61 SW6       29.98F HX 103
BATESVILLE     SUNNY     93  73  52 S8        29.98F HX 102
NEWPORT        SUNNY     95  75  52 S8        29.98F HX 106
WALNUT RIDGE     N/A     93  68  43 SW14      29.95F HX  97
BLYTHEVILLE    SUNNY     94  72  48 SW9G21    29.98F HX 102
SEARCY         SUNNY     94  75  53 SW8       29.99F HX 105
PINE BLUFF     LGT RAIN  95  69  42 CALM      30.00F HX 100
MONTICELLO     MOSUNNY   93  69  45 SE5       30.00F HX  98


...NORTH MISSISSIPPI...

CITY           SKY/WX    TMP DP  RH WIND       PRES   REMARKS
TUPELO         MOSUNNY   92  70  48 W7        30.02F HX  97
OLIVE BRANCH   PTSUNNY   88  73  62 S7        30.01F HX  96
CLARKSDALE     MOSUNNY   91  73  55 CALM      30.01F HX 100
CORINTH        MOSUNNY   90  72  55 SW8       30.01F HX  96
GRENADA        CLOUDY    91  70  49 CALM      30.01F HX  97
GREENWOOD      MOSUNNY   92  71  50 S3        30.00F HX  98
COLUMBUS       SUNNY     92  71  50 SW5       30.02F HX  99
STARKVILLE     FAIR      90  72  55 CALM      30.02F HX  96
GOLDEN TRIANGL MOSUNNY   93  72  49 CALM      30.02F HX 100


...SOUTHEAST MISSOURI...

CITY           SKY/WX    TMP DP  RH WIND       PRES   REMARKS
DONIPHAN         N/A     91  72  54 SW7         N/A  HX  98
WEST PLAINS    SUNNY     88  72  58 S10       30.01F HX  94
POPLAR BLUFF   SUNNY     91  72  53 SW9       29.95F HX  98
CAPE GIRARDEAU MOSUNNY   93  74  53 SW13      29.94F HX 103


...NORTHWEST ALABAMA...

CITY           SKY/WX    TMP DP  RH WIND       PRES   REMARKS
MUSCLE SHOALS  SUNNY     92  68  45 SW6       30.03F HX  96


...MIDDLE TENNESSEE...

CITY           SKY/WX    TMP DP  RH WIND       PRES   REMARKS
NASHVILLE      PTSUNNY   94  70  45 SW7       29.99F HX 100
CLARKSVILLE    SUNNY     93  70  46 SW12      29.97F HX  99
DICKSON        SUNNY     88  70  55 SW12      30.01F HX  92
COLUMBIA       MOSUNNY   93  72  49 SW9       30.00F HX 100
LEWISBURG      MOSUNNY   91  68  46 S8        30.01F HX  95


...WESTERN KENTUCKY...

CITY           SKY/WX    TMP DP  RH WIND       PRES   REMARKS
PADUCAH        SUNNY     93  74  53 SW9G17    29.94F HX 103
FORT CAMPBELL  SUNNY     93  70  46 SW16      29.97F HX  99


...CENTRAL ARKANSAS...

CITY           SKY/WX    TMP DP  RH WIND       PRES   REMARKS
LITTLE ROCK    MOSUNNY   94  70  45 SW9       29.99F HX 100


SKY/WX REPORTED AS FAIR MEANS FEW OR NO CLOUDS BELOW
12 THOUSAND FEET.



USA.gov is the U.S. government's official web portal to all federal, state and local government web resources and services.